Powrót do katalogu

CZ-4B DEB

AktywnySSO
NORAD 44592·DEBRIS·🇨🇳 China

Wystrzelony May 27, 2008 z Taiyuan Satellite Launch Center

Loading…

Następne Przeloty (najbliższe 24 godziny)

TLE

ŚwieżeSource: Space-Track

Epoka: Sep 14, 2026, 11:09 UTC

1 44592U 08026G   26257.46513948  .00000067  00000-0  33775-4 0  9994
2 44592  98.8480 332.3614 0069047   7.3335 352.8847 14.42935425674319

Śledź CZ-4B DEB w czasie rzeczywistym z AllMySat

Download on the App Store